This demonstration page uses our WeatherBlox Daily Observations layout. Learn more.

Left ArrowRight Arrow

Hourly Observations for July 2, 2022

Temp ( °F °C ) Dew Point ( °F °C ) Humidity (%) Winds ( mph kmh ) Pressure ( in mb ) Visibility ( mi km ) Precip ( " mm )
12:53 am 00:53 Clear 69 20.6 67 19.4 93 93 Calm 29.96 1015 10 16 0.00 0.00
1:53 am 01:53 Clear 70 21.1 68 20 93 93 Calm 29.96 1015 10 16 0.00 0.00
2:53 am 02:53 Clear 70 21.1 68 20 93 93 NW 3 6 29.96 1015 10 16 0.00 0.00
3:53 am 03:53 Mostly Clear 71 21.7 69 20.6 94 94 WNW 7 11 29.98 1015 10 16 0.00 0.00
4:53 am 04:53 Clear 70 21.1 68 20 93 93 WNW 3 6 29.97 1015 10 16 0.00 0.00
5:53 am 05:53 Mostly Clear 70 21.1 67 19.4 90 90 NW 3 6 29.97 1015 10 16 0.00 0.00
6:53 am 06:53 Cloudy with Rain 71 21.7 68 20 90 90 N 5 7 30.00 1016 10 16 0.06 1.52
7:53 am 07:53 Mostly Cloudy 71 21.7 69 20.6 94 94 Calm 30.00 1016 10 16 0.01 0.25
8:53 am 08:53 Sunny 74 23.3 70 21.1 88 88 N 3 6 30.01 1016 10 16 0.00 0.00
9:53 am 09:53 Sunny 76 24.4 69 20.6 79 79 N 7 11 30.02 1017 10 16 0.00 0.00
10:53 am 10:53 Partly Cloudy 79 26.1 66 18.9 65 65 ENE 5 7 30.02 1017 10 16 0.00 0.00
11:53 am 11:53 Sunny 82 27.8 64 17.8 55 55 VRB 3 6 30.03 1017 10 16 0.00 0.00
12:53 pm 12:53 Sunny 82 27.8 64 17.8 55 55 VRB 5 7 30.03 1017 10 16 0.00 0.00
1:53 pm 13:53 Sunny 84 28.9 63 17.2 49 49 VRB 3 6 30.02 1017 10 16 0.00 0.00
2:53 pm 14:53 Sunny 86 30 62 16.7 45 45 VRB 5 7 30.01 1016 10 16 0.00 0.00
3:53 pm 15:53 Sunny 87 30.6 61 16.1 42 42 N 7 11 30.00 1016 10 16 0.00 0.00
4:53 pm 16:53 Mostly Sunny 88 31.1 61 16.1 40 40 N 8 13 29.98 1015 10 16 0.00 0.00
5:53 pm 17:53 Sunny 87 30.6 61 16.1 42 42 NNW 5 7 29.99 1016 10 16 0.00 0.00
6:53 pm 18:53 Sunny 85 29.4 60 15.6 43 43 N 7 11 29.98 1015 10 16 0.00 0.00
7:53 pm 19:53 Sunny 80 26.7 67 19.4 64 64 Calm 29.98 1015 10 16 0.00 0.00
8:53 pm 20:53 Sunny 80 26.7 58 14.4 47 47 NNE 7 11 29.98 1015 10 16 0.00 0.00
9:53 pm 21:53 Clear 78 25.6 58 14.4 50 50 NNW 6 9 30.01 1016 10 16 0.00 0.00
10:53 pm 22:53 Clear 73 22.8 60 15.6 64 64 Calm 30.04 1017 10 16 0.00 0.00
11:53 pm 23:53 Clear 71 21.7 61 16.1 71 71 Calm 30.04 1017 10 16 0.00 0.00

Powered by AerisWeather